Location: Barcelona
(41.3830°N, 2.1830°E)
Time: 12:10:36
(UTC+02:00)

ISS - Pass Details

Date: 23 May 2020
Orbit: 417 x 419 km, 51.6° (Epoch: 31 May)

Event Time Altitude Azimuth Distance (km) Brightness Sun altitude
Rises 23:54:18 0° 308° (NW) 2,368 1.2 -22.5°
Reaches altitude 10° 23:56:55 10° 329° (NNW) 1,503 0.2 -22.7°
Maximum altitude 23:59:15 17° 13° (NNE) 1,137 -1.0 -22.9°
Enters shadow 00:01:02 12° 49° (NE) 1,362 -1.0 -23.0°
